Location: T�bingen+AIT
(48.5342°N, 9.0700°E)
Time: 22:31:37
(UTC+01:00)

SL-8 Rocket - Pass Details

Date: 14 September 2017
Orbit: 959 x 990 km, 82.9° (Epoch: 18 November)

Event Time Altitude Azimuth Distance (km) Brightness Sun altitude
Exits shadow 22:45:58 50° 55° (NE) 1,206 4.3 -28.6°
Drops below altitude 10° 22:50:54 10° 16° (NNE) 2,702 6.6 -29.2°
Sets 22:53:27 0° 13° (NNE) 3,653 7.4 -29.5°
